TimeCST,TemperatureF,Dew PointF,Humidity,Sea Level PressureIn,VisibilityMPH,Wind Direction,Wind SpeedMPH,Gust SpeedMPH,PrecipitationIn,Events,Conditions,WindDirDegrees,DateUTC
12:15 AM,37.4,32.0,81,29.83,10.0,Calm,Calm,-,N/A,,Clear,0,2012-12-19 06:15:00
12:35 AM,37.4,32.0,81,29.82,10.0,East,4.6,-,N/A,,Clear,90,2012-12-19 06:35:00
12:55 AM,42.8,33.8,70,29.81,10.0,East,4.6,-,N/A,,Clear,80,2012-12-19 06:55:00
1:15 AM,42.8,33.8,70,29.81,10.0,East,8.1,-,N/A,,Clear,100,2012-12-19 07:15:00
1:35 AM,44.6,35.6,71,29.81,10.0,East,8.1,-,N/A,,Clear,100,2012-12-19 07:35:00
1:55 AM,46.4,35.6,66,29.81,10.0,East,6.9,-,N/A,,Clear,100,2012-12-19 07:55:00
2:15 AM,46.4,35.6,66,29.82,10.0,ESE,8.1,-,N/A,,Clear,110,2012-12-19 08:15:00
2:35 AM,46.4,33.8,62,29.81,10.0,East,5.8,-,N/A,,Clear,100,2012-12-19 08:35:00
2:55 AM,44.6,33.8,66,29.80,10.0,East,6.9,-,N/A,,Clear,90,2012-12-19 08:55:00
3:15 AM,44.6,33.8,66,29.80,10.0,East,5.8,-,N/A,,Clear,90,2012-12-19 09:15:00
3:35 AM,44.6,33.8,66,29.80,10.0,East,6.9,-,N/A,,Clear,80,2012-12-19 09:35:00
3:55 AM,44.6,33.8,66,29.80,10.0,East,4.6,-,N/A,,Clear,80,2012-12-19 09:55:00
4:15 AM,44.6,35.6,71,29.79,10.0,East,6.9,-,N/A,,Clear,90,2012-12-19 10:15:00
4:35 AM,46.4,35.6,66,29.79,10.0,East,8.1,-,N/A,,Clear,90,2012-12-19 10:35:00
4:55 AM,46.4,35.6,66,29.78,10.0,East,8.1,-,N/A,,Clear,90,2012-12-19 10:55:00
5:16 AM,46.4,33.8,62,29.76,10.0,East,9.2,-,N/A,,Clear,100,2012-12-19 11:16:00
5:35 AM,46.4,33.8,62,29.77,10.0,East,8.1,-,N/A,,Clear,100,2012-12-19 11:35:00
6:15 AM,46.4,33.8,62,29.76,10.0,ESE,9.2,-,N/A,,Clear,110,2012-12-19 12:15:00
6:35 AM,46.4,33.8,62,29.77,10.0,ESE,8.1,-,N/A,,Clear,110,2012-12-19 12:35:00
6:55 AM,46.4,33.8,62,29.76,10.0,ESE,9.2,-,N/A,,Clear,110,2012-12-19 12:55:00
7:35 AM,46.4,33.8,62,29.76,10.0,ESE,9.2,-,N/A,,Clear,120,2012-12-19 13:35:00
7:55 AM,46.4,35.6,66,29.76,10.0,ESE,10.4,-,N/A,,Clear,120,2012-12-19 13:55:00
8:15 AM,48.2,35.6,62,29.75,10.0,ESE,9.2,-,N/A,,Mostly Cloudy,120,2012-12-19 14:15:00
8:55 AM,51.8,37.4,58,29.75,10.0,SE,10.4,-,N/A,,Partly Cloudy,130,2012-12-19 14:55:00
9:15 AM,51.8,37.4,58,29.75,10.0,SE,9.2,-,N/A,,Clear,140,2012-12-19 15:15:00
9:35 AM,53.6,39.2,58,29.75,10.0,SE,9.2,-,N/A,,Clear,140,2012-12-19 15:35:00
9:55 AM,53.6,41.0,62,29.75,10.0,SE,8.1,-,N/A,,Clear,140,2012-12-19 15:55:00
10:15 AM,55.4,42.8,63,29.75,10.0,SSE,8.1,-,N/A,,Clear,150,2012-12-19 16:15:00
10:35 AM,57.2,46.4,67,29.74,10.0,South,10.4,-,N/A,,Clear,170,2012-12-19 16:35:00
11:15 AM,60.8,51.8,72,29.73,10.0,South,9.2,-,N/A,,Scattered Clouds,180,2012-12-19 17:15:00
11:35 AM,62.6,53.6,72,29.72,10.0,South,15.0,20.7,N/A,,Overcast,180,2012-12-19 17:35:00
11:55 AM,62.6,53.6,72,29.70,10.0,South,10.4,-,N/A,,Overcast,190,2012-12-19 17:55:00
12:16 PM,62.6,53.6,72,29.69,10.0,South,10.4,16.1,N/A,,Overcast,180,2012-12-19 18:16:00
12:35 PM,62.6,53.6,72,29.68,10.0,South,10.4,17.3,N/A,,Overcast,190,2012-12-19 18:35:00
12:55 PM,62.6,53.6,72,29.67,10.0,South,9.2,16.1,N/A,,Overcast,180,2012-12-19 18:55:00
1:15 PM,62.6,53.6,72,29.65,10.0,South,8.1,-,N/A,,Overcast,180,2012-12-19 19:15:00
1:36 PM,62.6,53.6,72,29.65,10.0,South,9.2,-,N/A,,Overcast,170,2012-12-19 19:36:00
1:55 PM,62.6,53.6,72,29.63,10.0,SSE,11.5,16.1,N/A,,Overcast,160,2012-12-19 19:55:00
2:15 PM,62.6,53.6,72,29.62,10.0,South,9.2,-,N/A,,Overcast,170,2012-12-19 20:15:00
2:55 PM,62.6,53.6,72,29.61,10.0,SSE,9.2,-,N/A,,Overcast,160,2012-12-19 20:55:00
3:15 PM,62.6,53.6,72,29.60,10.0,SSE,10.4,-,N/A,,Mostly Cloudy,150,2012-12-19 21:15:00
3:35 PM,62.6,53.6,72,29.59,10.0,SSE,12.7,-,N/A,,Mostly Cloudy,150,2012-12-19 21:35:00
3:55 PM,62.6,53.6,72,29.59,10.0,SSE,15.0,23.0,N/A,,Mostly Cloudy,160,2012-12-19 21:55:00
4:15 PM,62.6,53.6,72,29.58,10.0,SSE,12.7,-,N/A,,Mostly Cloudy,150,2012-12-19 22:15:00
4:35 PM,62.6,53.6,72,29.57,10.0,SSE,13.8,17.3,N/A,,Scattered Clouds,150,2012-12-19 22:35:00
5:15 PM,60.8,53.6,77,29.56,10.0,SSE,10.4,-,N/A,,Clear,150,2012-12-19 23:15:00
5:35 PM,60.8,55.4,82,29.57,10.0,SSE,10.4,-,N/A,,Scattered Clouds,160,2012-12-19 23:35:00
5:55 PM,60.8,55.4,82,29.57,10.0,SSE,11.5,-,N/A,,Mostly Cloudy,160,2012-12-19 23:55:00
6:35 PM,62.6,55.4,77,29.55,10.0,SSE,15.0,20.7,N/A,,Partly Cloudy,160,2012-12-20 00:35:00
7:15 PM,62.6,55.4,77,29.54,10.0,South,11.5,21.9,N/A,,Clear,170,2012-12-20 01:15:00
7:55 PM,64.4,55.4,73,29.54,10.0,South,13.8,18.4,N/A,,Partly Cloudy,170,2012-12-20 01:55:00
8:15 PM,64.4,57.2,77,29.52,10.0,South,9.2,17.3,N/A,,Partly Cloudy,180,2012-12-20 02:15:00
8:55 PM,64.4,57.2,77,29.50,10.0,SW,9.2,19.6,N/A,Thunderstorm,Mostly Cloudy,230,2012-12-20 02:55:00
9:15 PM,62.6,55.4,77,29.48,10.0,SSW,15.0,27.6,N/A,Thunderstorm,Thunderstorm,210,2012-12-20 03:15:00
9:35 PM,62.6,51.8,68,29.46,10.0,SSW,17.3,24.2,N/A,Thunderstorm,Mostly Cloudy,200,2012-12-20 03:35:00
9:55 PM,62.6,53.6,72,29.46,10.0,South,17.3,24.2,N/A,,Mostly Cloudy,180,2012-12-20 03:55:00
10:35 PM,60.8,53.6,77,29.45,10.0,South,16.1,25.3,0.02,,Mostly Cloudy,170,2012-12-20 04:35:00
10:55 PM,60.8,48.2,63,29.45,10.0,South,10.4,-,0.02,,Mostly Cloudy,180,2012-12-20 04:55:00
11:15 PM,59.0,48.2,67,29.44,10.0,SSW,10.4,-,N/A,,Overcast,200,2012-12-20 05:15:00
11:35 PM,57.2,48.2,72,29.45,10.0,SSW,9.2,-,N/A,,Overcast,210,2012-12-20 05:35:00
11:55 PM,57.2,48.2,72,29.45,10.0,SSW,11.5,-,N/A,,Overcast,210,2012-12-20 05:55:00